Weather Roundup
Issued by NWS Chicago, IL

Home | Current Version | Previous Version | Graphics & Text | Print | Product List | Glossary On
Versions: 1 2 3 4 5 6 7 8 9 10 11 12 13 14 15 16 17 18 19 20 21 22 23 24 25 26 27 28 29 30 31 32 33 34 35 36 37 38 39 40 41 42 43 44 45 46 47 48 49 50
000
NZUS59 KLOT 181703
HRRLOT

CHICAGO AREA WEATHER ROUNDUP
NATIONAL WEATHER SERVICE CHICAGO/ROMEOVILLE IL
1100 AM CST WED JAN 18 2017

NOTE: "FAIR" INDICATES FEW OR NO CLOUDS BELOW 12,000 FEET WITH NO
SIGNIFICANT WEATHER AND/OR OBSTRUCTIONS TO VISIBILITY.

* THESE STATIONS ARE NOT UNDER NWS QUALITY CONTROL. THEY ALSO MAY NOT
  REPORT WEATHER SUCH AS PRECIPITATION OR FOG.

ILZ005-006-012>014-019>023-181800-
NORTHEAST ILLINOIS

CITY           SKY/WX    TMP DP  RH WIND       PRES   REMARKS
OHARE          CLOUDY    34  33  96 SW10      30.12F FOG     WCI  26
MIDWAY         CLOUDY    32  32 100 SW14      30.13F FOG     WCI  22
AURORA         CLOUDY    35  33  92 SW10      30.14S FOG     WCI  27
LANSING*       CLOUDY    34  34 100 SW12      30.16S FOG     WCI  25
JOLIET*        CLOUDY    35  35  99 SW8       30.16F FOG     WCI  29
WAUKEGAN       CLOUDY    34  33  96 SW10      30.07F FOG     WCI  26
DUPAGE AIRPORT FOG       34  31  88 SW12      30.11S VSB 1/2 WCI  25
WHEELING       CLOUDY    34  32  92 SW8       30.11F WCI  27
KANKAKEE*      CLOUDY    35  34  97 SW9       30.18F FOG     WCI  27
MORRIS*        CLOUDY    35  33  94 SW8       30.15F FOG     WCI  29
LEWIS AIRPORT* CLOUDY    33  33 100 SW13      30.14F FOG     WCI  24
NORTHERLY ISL    N/A     35  32  88 W9          N/A  WCI  28
$$

WIZ051-052-058>065-066-070>072-181800-
SOUTHEAST WISCONSIN

CITY           SKY/WX    TMP DP  RH WIND       PRES   REMARKS
MILWAUKEE      CLOUDY    35  32  88 W10       30.05F WCI  27
KENOSHA*       CLOUDY    34  33  96 SW10      30.07F FOG     WCI  26
RACINE*        CLOUDY    35  33  92 W7        30.08F WCI  29
WAUKESHA       CLOUDY    30  30 100 SW8       30.05F WCI  23
$$

INZ001>003-010>013-019-020-181800-
NORTHWEST INDIANA

CITY           SKY/WX    TMP DP  RH WIND       PRES   REMARKS
GARY*          CLOUDY    36  34  93 SW8       30.16S FOG
MICHIGAN CITY* NOT AVBL
RENSSELAER*    NOT AVBL
VALPARAISO     CLOUDY    35  34  96 SW13      30.15F FOG     WCI  26
$$

LMZ740>746-181800-
SOUTHERN LAKE MICHIGAN

STATION/POSITION TIME  SKY/WX   TEMP WIND        PRES    VSBY
                                AIR  DIR/SP/G
                 (UTC)          (F)  (DEG/KT/KT) (MB)    (MI)
HARRISON CRIB    1640            35  210/ 12/ 13   N/A
BURNHAM HARBOR   1700            35  230/ 10       N/A
CALUMET HARBOR   1630            34  220/  6/  8 1019.9F
BURNS HARBOR     1640            35  210/  8/ 10 1021.0F
MICHIGAN CITY    NOT AVBL
$$

ABBREVIATIONS USED IN REMARKS
   TC - TEMPERATURE IN CELSIUS
  WCI - WIND CHILL INDEX
   HX - HEAT INDEX
  VSB - VISIBILITY
$$




USA.gov is the U.S. government's official web portal to all federal, state and local government web resources and services.